FW2889 Weather Reports


Display with metric or nautical units.
time (UTC)temp
F
wind
direction
speed
MPH
gust
MPH
rain 1hr
in
rain 24hr
in
rain mn
in
humidity
%
barometer
mb
20260507110041 82 0 3.0 11.0 0.00 0.00 0.00 31 991.8
20260507103042 83 0 3.0 12.0 0.00 0.00 0.00 30 992.0
20260507100041 84 0 4.0 10.0 0.00 0.00 0.00 34 992.2
20260507093041 83 0 4.0 10.0 0.00 0.00 0.00 32 992.3
20260507090041 82 0 3.0 16.0 0.00 0.00 0.00 33 992.4
20260507083040 81 0 5.0 10.0 0.00 0.00 0.00 34 992.6
20260507080041 79 0 5.0 12.0 0.00 0.00 0.00 38 992.8
20260507073041 76 0 5.0 11.0 0.00 0.00 0.00 44 992.8
20260507070040 75 0 5.0 11.0 0.00 0.00 0.00 45 992.8
20260507063040 74 0 3.0 8.0 0.00 0.00 0.00 47 992.7
20260507060041 70 315 2.0 7.0 0.00 0.00 0.00 53 992.9
20260507053041 68 0 3.0 8.0 0.00 0.00 0.00 56 992.9
20260507050042 65 113 1.0 4.0 0.00 0.00 0.00 62 993.0
20260507043040 65 0.0 2.0 0.00 0.00 0.00 57 993.0
20260507040040 65 315 1.0 4.0 0.00 0.00 0.00 58 992.7
20260507033100 65 0 3.0 8.0 0.00 0.00 0.00 57 992.4
20260507030100 65 0 5.0 18.0 0.00 0.00 0.00 53 991.9
20260507023041 61 0 3.0 11.0 0.00 0.00 0.00 59 992.0
20260507020043 58 0 2.0 8.0 0.00 0.00 0.00 62 991.2
20260507013143 58 293 2.0 8.0 0.00 0.00 0.00 62 991.5
20260507010042 56 0 4.0 13.0 0.00 0.00 0.00 65 991.8
20260507003042 60 0 4.0 13.0 0.00 0.00 0.00 57 991.3
20260507000041 60 0 3.0 9.0 0.00 0.00 0.00 57 991.3
20260506233142 61 0 5.0 11.0 0.00 0.00 0.00 56 991.2
20260506230041 61 0 6.0 13.0 0.00 0.00 0.00 55 991.3
20260506223041 63 0 6.0 11.0 0.00 0.00 0.00 52 991.2
20260506220041 64 0 5.0 12.0 0.00 0.00 0.00 50 991.1
20260506213041 66 0 6.0 15.0 0.00 0.00 0.00 47 991.2
20260506210042 68 0 6.0 14.0 0.00 0.00 0.00 44 991.1
20260506203040 68 0 4.0 9.0 0.00 0.00 0.00 44 991.0
20260506200040 66 158 1.0 4.0 0.00 0.00 0.00 47 991.1
20260506193042 67 180 1.0 4.0 0.00 0.00 0.00 45 991.0
20260506190042 68 158 2.0 5.0 0.00 0.00 0.00 44 990.9
20260506183042 68 135 1.0 4.0 0.00 0.00 0.00 42 990.9
20260506180042 69 135 1.0 3.0 0.00 0.00 0.00 42 990.9
20260506173101 70 90 1.0 3.0 0.00 0.00 0.00 42 990.8
20260506170042 70 0.0 2.0 0.00 0.00 0.00 42 990.6
20260506163101 72 0.0 2.0 0.00 0.00 0.00 40 990.4
20260506160042 75 293 2.0 5.0 0.00 0.00 0.00 34 990.4
20260506153041 76 315 1.0 4.0 0.00 0.00 0.00 36 990.2
20260506143101 80 0 2.0 8.0 0.00 0.00 0.00 31 990.2
20260506140042 80 315 2.0 11.0 0.00 0.00 0.00 32 990.2
20260506133041 78 0 1.0 5.0 0.00 0.00 0.00 32 990.4
20260506130041 77 293 2.0 4.0 0.00 0.00 0.00 34 990.7
20260506123041 79 0 2.0 8.0 0.00 0.00 0.00 32 990.8
20260506120041 79 0 3.0 9.0 0.00 0.00 0.00 31 990.9
20260506113041 79 0 3.0 10.0 0.00 0.00 0.00 35 991.2